QPF
0.00 0.00 0.00 0.00 0.00 0.00 0.00 0.00 0.00 0.00 0.00 0.00 0.00 0.00 0.00 0.00 0.00 0.00 0.00 0.00 0.00 0.00 0.00 0.00 0.00 0.00 0.00 0.00 0.00 0.00 0.00 0.00 0.00 0.00 0.00 0.00 0.00 0.00 0.00 0.00 0.00 0.00 0.00 0.00 0.00
0.00 0.00 0.00 0.00 0.00 0.00 0.00 0.00 0.00 0.00 0.00 0.00 0.00 0.00 0.00 0.00 0.00 0.00 0.00 0.00 0.00 0.00 0.00 0.00 0.00 0.00 0.00 0.00 0.00 0.00 0.00 0.00 0.00 0.00 0.00 0.00 0.00 0.00 0.00 0.00 0.00 0.00 0.00 0.00 0.00
0.00 0.00 0.00 0.00 0.00 0.00 0.00 0.00 0.00 0.00 0.00 0.00 0.00 0.00 0.00 0.00 0.00 0.00 0.00 0.00 0.00 0.00 0.00 0.00 0.00 0.00 0.00 0.00 0.00 0.00 0.00 0.00 0.00 0.00 0.00 0.00 0.00 0.00 0.00 0.00 0.00 0.00 0.00 0.00 0.00
0.00 0.00 0.00 0.00 0.00 0.00 0.00 0.00 0.00 0.00 0.00 0.00 0.00 0.00 0.00 0.00 0.00 0.00 0.00 0.00 0.00 0.00 0.00 0.00 0.00 0.00 0.00 0.00 0.00 0.00 0.00 0.00 0.00 0.00 0.00 0.00 0.00 0.00 0.00 0.00 0.00 0.00 0.00 0.00 0.00
0.00 0.00 0.00 0.00 0.00 0.00 0.00 0.00 0.00 0.00 0.00 0.00 0.00 0.00 0.00 0.00 0.00 0.00 0.00 0.00 0.00 0.00 0.00 0.00 0.00 0.00 0.00 0.00 0.00 0.00 0.00 0.00 0.00 0.00 0.00 0.00 0.00 0.00 0.00 0.00 0.00 0.00 0.00 0.00 0.00
0.00 0.00 0.00 0.00 0.00 0.00 0.00 0.00 0.00 0.00 0.00 0.00 0.00 0.00 0.00 0.00 0.00 0.00 0.00 0.00 0.00 0.00 0.00 0.00 0.00 0.00 0.00 0.00 0.00 0.00 0.00 0.00 0.00 0.00 0.00 0.00 0.00 0.00 0.00 0.00 0.00 0.00 0.00 0.00 0.00
0.00 0.00 0.00 0.00 0.00 0.00 0.00 0.00 0.00 0.00 0.00 0.00 0.00 0.00 0.00 0.00 0.00 0.00 0.00 0.00 0.00 0.00 0.00 0.00 0.00 0.00 0.00 0.00 0.00 0.00 0.00 0.00 0.00 0.00 0.00 0.00 0.00 0.00 0.00 0.00 0.00 0.00 0.00 0.00 0.00
0.00 0.00 0.00 0.00 0.00 0.00 0.00 0.00 0.00 0.00 0.00 0.00 0.00 0.00 0.00 0.00 0.00 0.00 0.00 0.00 0.00 0.00 0.00 0.00 0.00 0.00 0.00 0.00 0.00 0.00 0.00 0.00 0.00 0.00 0.00 0.00 0.00 0.00 0.00 0.00 0.00 0.00 0.00 0.00 0.00
0.00 0.00 0.00 0.00 0.00 0.00 0.00 0.00 0.00 0.00 0.00 0.00 0.00 0.00 0.00 0.00 0.00 0.00 0.00 0.00 0.00 0.00 0.00 0.00 0.00 0.00 0.00 0.00 0.00 0.00 0.00 0.00 0.00 0.00 0.00 0.00 0.00 0.00 0.00 0.00 0.00 0.00 0.00 0.00 0.00
0.00 0.00 0.00 0.00 0.00 0.00 0.00 0.00 0.00 0.00 0.00 0.00 0.00 0.00 0.00 0.00 0.00 0.00 0.00 0.00 0.00 0.00 0.00 0.00 0.00 0.00 0.00 0.00 0.00 0.00 0.00 0.00 0.00 0.00 0.00 0.00 0.00 0.00 0.00 0.00 0.00 0.00 0.00 0.00 0.00
0.00 0.00 0.00 0.00 0.00 0.00 0.00 0.00 0.00 0.00 0.00 0.00 0.00 0.00 0.00 0.00 0.00 0.00 0.00 0.00 0.00 0.00 0.00 0.00 0.00 0.00 0.00 0.00 0.00 0.00 0.00 0.00 0.00 0.00 0.00 0.00 0.00 0.00 0.00 0.00 0.00 0.00 0.00 0.00 0.00
0.00 0.00 0.00 0.00 0.00 0.00 0.00 0.00 0.00 0.00 0.00 0.00 0.00 0.00 0.00 0.00 0.00 0.00 0.00 0.00 0.00 0.00 0.00 0.00 0.00 0.00 0.00 0.00 0.00 0.00 0.00 0.00 0.00 0.00 0.00 0.00 0.00 0.00 0.00 0.00 0.00 0.00 0.00 0.00 0.00
0.00 0.00 0.00 0.00 0.00 0.00 0.00 0.00 0.00 0.00 0.00 0.00 0.00 0.00 0.00 0.00 0.00 0.00 0.00 0.00 0.00 0.00 0.00 0.00 0.00 0.00 0.00 0.00 0.00 0.00 0.00 0.00 0.00 0.00 0.00 0.00 0.00 0.00 0.00 0.00 0.00 0.00 0.00 0.00 0.00
0.00 0.00 0.00 0.00 0.00 0.00 0.00 0.00 0.00 0.00 0.00 0.00 0.00 0.00 0.00 0.00 0.00 0.00 0.00 0.00 0.00 0.00 0.00 0.00 0.00 0.00 0.00 0.00 0.00 0.00 0.00 0.00 0.00 0.00 0.00 0.00 0.00 0.00 0.00 0.00 0.00 0.00 0.00 0.00 0.00
0.00 0.00 0.00 0.00 0.00 0.00 0.00 0.00 0.00 0.00 0.00 0.00 0.00 0.00 0.00 0.00 0.00 0.00 0.00 0.00 0.00 0.00 0.00 0.00 0.00 0.00 0.00 0.00 0.00 0.00 0.00 0.00 0.00 0.00 0.00 0.00 0.00 0.00 0.00 0.00 0.00 0.00 0.00 0.00 0.00
0.00 0.00 0.00 0.00 0.00 0.00 0.00 0.00 0.00 0.00 0.00 0.00 0.00 0.00 0.00 0.00 0.00 0.00 0.00 0.00 0.00 0.00 0.00 0.00 0.00 0.00 0.00 0.00 0.00 0.00 0.00 0.00 0.00 0.00 0.00 0.00 0.00 0.00 0.00 0.00 0.00 0.00 0.00 0.00 0.00
0.00 0.00 0.00 0.00 0.00 0.00 0.00 0.00 0.00 0.00 0.00 0.00 0.00 0.00 0.00 0.00 0.00 0.00 0.00 0.00 0.00 0.00 0.00 0.00 0.00 0.00 0.00 0.00 0.00 0.00 0.00 0.00 0.00 0.00 0.00 0.00 0.00 0.00 0.00 0.00 0.00 0.00 0.00 0.00 0.00
0.00 0.00 0.00 0.00 0.00 0.00 0.00 0.00 0.00 0.00 0.00 0.00 0.00 0.00 0.00 0.00 0.00 0.00 0.00 0.00 0.00 0.00 0.00 0.00 0.00 0.00 0.00 0.00 0.00 0.00 0.00 0.00 0.00 0.00 0.00 0.00 0.00 0.00 0.00 0.00 0.00 0.00 0.00 0.00 0.00
0.00 0.00 0.00 0.00 0.00 0.00 0.00 0.00 0.00 0.00 0.00 0.00 0.00 0.00 0.00 0.00 0.00 0.00 0.00 0.00 0.00 0.00 0.00 0.00 0.00 0.00 0.00 0.00 0.00 0.00 0.00 0.00 0.00 0.00 0.00 0.00 0.00 0.00 0.00 0.00 0.00 0.00 0.00 0.00 0.00
0.00 0.00 0.00 0.00 0.00 0.00 0.00 0.00 0.00 0.00 0.00 0.00 0.00 0.00 0.00 0.00 0.00 0.00 0.00 0.00 0.00 0.00 0.00 0.00 0.00 0.00 0.00 0.00 0.00 0.00 0.00 0.00 0.00 0.00 0.00 0.00 0.00 0.00 0.00 0.00 0.00 0.00 0.00 0.00 0.00
0.00 0.00 0.00 0.00 0.00 0.00 0.00 0.00 0.00 0.00 0.00 0.00 0.00 0.00 0.00 0.00 0.00 0.00 0.00 0.00 0.00 0.00 0.00 0.00 0.00 0.00 0.00 0.00 0.00 0.00 0.00 0.00 0.00 0.00 0.01 0.01 0.00 0.00 0.00 0.00 0.00 0.00 0.00 0.00 0.00
0.00 0.00 0.00 0.00 0.00 0.00 0.00 0.00 0.00 0.00 0.00 0.00 0.00 0.00 0.00 0.00 0.00 0.00 0.00 0.00 0.00 0.00 0.00 0.00 0.00 0.00 0.00 0.00 0.00 0.00 0.00 0.00 0.00 0.00 0.01 0.08 0.05 0.00 0.00 0.00 0.00 0.00 0.00 0.00 0.00
0.00 0.00 0.00 0.00 0.00 0.00 0.00 0.00 0.00 0.00 0.00 0.00 0.00 0.00 0.00 0.00 0.00 0.00 0.00 0.00 0.00 0.00 0.00 0.00 0.00 0.00 0.00 0.00 0.00 0.00 0.00 0.00 0.00 0.01 0.01 0.07 0.02 0.00 0.00 0.00 0.00 0.00 0.00 0.00 0.00
0.00 0.00 0.00 0.00 0.00 0.00 0.00 0.00 0.00 0.00 0.00 0.00 0.00 0.00 0.00 0.00 0.00 0.00 0.00 0.00 0.00 0.00 0.00 0.00 0.00 0.00 0.00 0.00 0.00 0.00 0.00 0.00 0.00 0.00 0.00 0.01 0.00 0.00 0.00 0.00 0.00 0.00 0.00 0.00 0.00
0.00 0.00 0.00 0.00 0.00 0.00 0.00 0.00 0.00 0.00 0.00 0.00 0.00 0.00 0.00 0.00 0.00 0.00 0.00 0.00 0.00 0.00 0.00 0.00 0.00 0.00 0.00 0.00 0.00 0.00 0.00 0.00 0.00 0.00 0.00 0.00 0.00 0.00 0.00 0.00 0.00 0.00 0.00 0.00 0.00
0.00 0.00 0.00 0.00 0.00 0.00 0.00 0.00 0.00 0.00 0.00 0.00 0.00 0.00 0.00 0.00 0.00 0.00 0.00 0.00 0.00 0.00 0.00 0.00 0.00 0.00 0.00 0.00 0.00 0.00 0.00 0.00 0.00 0.00 0.00 0.00 0.00 0.00 0.00 0.00 0.00 0.00 0.00 0.00 0.00
0.00 0.00 0.00 0.00 0.00 0.00 0.00 0.00 0.00 0.00 0.00 0.00 0.00 0.00 0.00 0.00 0.00 0.00 0.00 0.00 0.00 0.00 0.00 0.00 0.00 0.00 0.00 0.00 0.00 0.00 0.00 0.00 0.00 0.00 0.00 0.00 0.00 0.00 0.00 0.00 0.00 0.00 0.00 0.00 0.00
MSLP
1019.94 1019.51 1019.23 1018.91 1018.61 1018.36 1018.05 1017.87 1017.59 1017.55 1017.37 1017.19 1017.23 1017.06 1016.88 1016.67 1016.43 1016.37 1016.52 1017.23 1016.39 1015.69 1015.37 1014.88 1014.49 1014.49 1014.36 1014.92 1015.25 1015.79 1017.17 1018.18 1017.94 1017.64 1017.28 1016.90 1016.85 1016.71 1016.61 1016.71 1016.73 1016.80 1017.17 1017.42 1017.62
1020.07 1019.68 1019.34 1019.03 1018.74 1018.43 1018.17 1017.93 1017.67 1017.67 1017.56 1017.30 1017.21 1017.12 1016.99 1016.82 1016.71 1017.03 1017.46 1016.65 1016.33 1015.70 1015.59 1015.56 1015.31 1014.94 1014.96 1015.27 1015.73 1016.44 1017.64 1017.88 1017.78 1017.62 1017.47 1017.26 1017.18 1017.15 1017.12 1017.22 1017.32 1017.53 1017.41 1017.37 1017.48
1020.16 1019.84 1019.53 1019.16 1018.88 1018.52 1018.25 1018.03 1017.78 1017.69 1017.60 1017.40 1017.21 1017.06 1016.94 1016.85 1017.04 1018.09 1017.20 1016.55 1016.17 1015.54 1015.61 1015.53 1015.37 1015.27 1015.38 1015.65 1016.17 1016.74 1017.65 1017.88 1018.07 1017.85 1017.82 1017.92 1018.03 1017.95 1017.82 1017.83 1017.73 1017.76 1017.70 1017.67 1018.01
1020.31 1019.98 1019.65 1019.28 1018.98 1018.60 1018.26 1018.11 1017.83 1017.64 1017.66 1017.41 1017.08 1017.05 1016.85 1016.90 1018.25 1018.00 1017.27 1016.57 1016.04 1015.51 1015.21 1015.43 1015.49 1015.67 1016.31 1016.68 1016.80 1017.23 1017.73 1017.70 1017.88 1017.85 1017.83 1017.98 1017.90 1017.79 1017.85 1017.83 1017.61 1017.64 1017.83 1018.02 1018.50
1020.50 1020.15 1019.71 1019.34 1018.97 1018.57 1018.36 1018.11 1017.82 1017.60 1017.59 1017.43 1017.09 1016.88 1016.78 1017.53 1018.53 1017.80 1017.31 1016.75 1016.27 1015.92 1016.02 1016.09 1016.31 1016.61 1016.98 1017.20 1017.38 1017.63 1017.90 1017.93 1018.04 1018.08 1018.06 1018.01 1018.04 1018.01 1017.63 1017.41 1017.48 1017.49 1017.63 1018.20 1018.62
1020.64 1020.28 1019.83 1019.33 1018.93 1018.55 1018.31 1018.08 1017.84 1017.57 1017.48 1017.25 1017.03 1016.83 1016.83 1018.18 1018.16 1017.86 1017.56 1016.96 1016.72 1016.48 1016.65 1016.67 1016.96 1017.03 1017.26 1017.60 1017.88 1018.22 1018.35 1018.42 1018.24 1018.14 1018.05 1018.17 1018.21 1018.26 1017.63 1017.41 1017.63 1017.66 1017.76 1018.12 1018.41
1020.79 1020.41 1019.94 1019.41 1018.91 1018.51 1018.21 1017.97 1017.73 1017.58 1017.44 1017.32 1017.05 1016.81 1017.54 1018.42 1017.91 1017.87 1017.45 1017.14 1017.08 1016.96 1016.96 1017.03 1017.03 1017.23 1017.68 1018.14 1018.25 1018.35 1018.65 1018.68 1018.48 1018.20 1018.05 1018.23 1018.15 1017.98 1017.51 1017.58 1017.71 1017.94 1018.02 1018.20 1018.42
1020.91 1020.53 1020.04 1019.51 1018.98 1018.49 1018.09 1017.87 1017.71 1017.51 1017.40 1017.21 1017.09 1017.03 1017.96 1017.80 1017.79 1017.71 1017.46 1017.35 1017.17 1017.10 1017.20 1017.23 1017.31 1017.54 1018.06 1018.31 1018.65 1018.95 1019.19 1019.27 1018.75 1018.37 1018.03 1018.11 1018.11 1017.81 1017.76 1017.96 1018.15 1018.19 1018.38 1018.77 1019.24
1021.09 1020.61 1020.14 1019.56 1018.93 1018.44 1017.99 1017.75 1017.61 1017.42 1017.30 1017.08 1017.06 1017.25 1018.30 1017.80 1017.96 1017.87 1017.80 1017.76 1017.44 1017.21 1016.96 1017.10 1017.40 1018.76 1019.14 1019.55 1020.11 1020.32 1020.08 1019.78 1019.15 1019.00 1018.83 1018.65 1018.57 1018.19 1018.11 1018.19 1018.60 1018.83 1019.00 1019.35 1019.78
1021.33 1020.69 1020.24 1019.67 1019.00 1018.37 1017.86 1017.76 1017.54 1017.24 1017.29 1017.20 1017.62 1018.24 1018.69 1019.31 1018.68 1018.16 1017.69 1017.62 1017.65 1017.55 1017.59 1017.92 1018.98 1020.36 1020.97 1020.74 1021.68 1021.43 1020.94 1020.24 1019.71 1019.37 1019.06 1019.08 1018.95 1018.78 1018.45 1018.66 1019.01 1019.29 1019.98 1020.34 1020.47
1021.49 1020.87 1020.21 1019.79 1019.17 1018.51 1018.05 1017.91 1018.64 1018.72 1019.12 1019.89 1020.06 1019.87 1019.77 1019.37 1018.91 1018.35 1018.10 1017.96 1017.96 1018.35 1019.35 1019.74 1020.86 1021.89 1021.95 1021.80 1021.76 1021.83 1021.71 1021.30 1020.40 1020.06 1020.13 1019.72 1019.32 1019.01 1018.93 1019.18 1019.50 1019.84 1020.45 1021.22 1021.24
1021.69 1021.07 1020.39 1019.88 1019.44 1018.91 1018.95 1020.31 1021.22 1021.60 1021.18 1020.45 1020.18 1020.11 1019.92 1019.90 1019.51 1018.87 1018.46 1018.79 1019.14 1019.89 1020.01 1020.74 1021.81 1022.05 1021.94 1021.95 1021.95 1021.97 1022.19 1021.88 1021.19 1020.99 1021.11 1020.24 1019.95 1019.93 1019.98 1019.99 1020.12 1020.57 1021.33 1021.74 1022.07
1021.87 1021.11 1020.51 1020.03 1019.60 1019.65 1020.75 1021.61 1021.66 1021.51 1021.20 1020.98 1020.55 1020.31 1020.23 1020.19 1020.43 1020.04 1019.82 1019.88 1020.27 1020.77 1021.14 1021.33 1021.98 1021.73 1021.70 1021.99 1022.25 1022.36 1022.65 1022.87 1022.98 1021.97 1021.32 1021.35 1021.06 1020.94 1021.38 1021.32 1021.39 1021.65 1021.91 1022.02 1022.28
1021.98 1021.36 1020.55 1019.87 1020.15 1020.98 1021.61 1021.90 1021.76 1021.67 1021.71 1022.02 1020.77 1020.46 1020.26 1020.15 1020.47 1020.32 1020.42 1020.74 1020.84 1021.60 1021.91 1022.23 1022.04 1022.15 1022.23 1022.44 1022.46 1022.59 1022.77 1023.15 1023.52 1023.75 1023.27 1022.46 1022.62 1022.19 1022.19 1022.26 1022.54 1022.73 1022.82 1023.04 1022.79
1022.19 1021.63 1021.18 1020.33 1021.08 1021.68 1022.27 1021.92 1021.75 1021.98 1022.58 1022.43 1021.15 1020.27 1020.44 1020.76 1021.27 1020.81 1020.71 1020.67 1021.66 1021.96 1022.25 1022.43 1022.37 1022.29 1022.27 1022.31 1022.54 1022.68 1022.87 1023.23 1023.48 1024.20 1024.12 1023.33 1023.33 1022.13 1022.28 1022.82 1023.51 1023.70 1023.34 1023.49 1023.43
1022.24 1021.71 1021.35 1021.21 1021.78 1022.05 1021.96 1021.88 1021.90 1022.31 1023.21 1022.77 1022.05 1021.77 1021.60 1021.65 1021.67 1021.55 1021.56 1021.61 1022.11 1022.37 1022.48 1022.61 1022.49 1022.35 1022.23 1022.30 1022.58 1022.80 1023.06 1023.62 1024.15 1024.56 1024.95 1023.59 1023.53 1022.31 1022.69 1023.13 1024.02 1024.29 1024.09 1024.03 1023.88
1022.07 1021.68 1021.52 1021.70 1022.10 1021.90 1021.85 1022.00 1022.62 1023.67 1024.26 1024.06 1023.43 1023.00 1023.00 1022.95 1022.52 1022.69 1023.16 1023.47 1024.08 1024.07 1024.05 1023.39 1022.90 1022.66 1022.60 1022.77 1023.16 1023.59 1024.14 1024.55 1025.11 1025.40 1024.54 1023.77 1023.88 1023.07 1022.76 1022.59 1023.17 1023.97 1024.25 1024.14 1023.95
1021.86 1021.58 1021.75 1021.62 1021.81 1021.90 1021.95 1022.26 1023.56 1025.27 1025.04 1024.65 1024.17 1023.80 1023.86 1023.72 1023.77 1023.81 1024.21 1025.07 1025.27 1025.57 1025.80 1025.66 1023.67 1023.13 1023.06 1023.15 1023.46 1023.97 1024.87 1026.02 1026.13 1025.95 1025.25 1024.29 1023.84 1023.72 1023.54 1023.35 1023.62 1024.03 1024.16 1024.25 1024.14
1021.70 1021.88 1021.86 1021.67 1021.77 1022.13 1022.13 1023.84 1025.70 1025.83 1025.73 1025.41 1024.58 1024.61 1024.57 1024.36 1024.42 1024.48 1025.20 1025.84 1026.07 1025.99 1026.42 1026.31 1024.67 1023.49 1023.35 1023.38 1023.82 1024.36 1024.91 1025.40 1026.23 1026.10 1025.92 1024.61 1024.21 1023.70 1023.71 1024.13 1024.15 1024.25 1024.39 1024.35 1024.25
1022.59 1022.67 1022.05 1021.61 1021.67 1022.19 1022.76 1025.68 1026.11 1025.85 1025.69 1025.50 1025.45 1025.30 1025.33 1025.17 1025.08 1025.15 1025.57 1026.06 1026.21 1026.31 1026.45 1026.62 1025.99 1024.13 1023.69 1023.63 1023.98 1024.42 1025.36 1025.87 1026.53 1026.86 1026.39 1024.96 1024.16 1023.71 1024.14 1024.31 1024.41 1024.55 1024.66 1024.58 1024.34
1022.79 1023.07 1021.72 1021.55 1021.70 1022.36 1024.90 1025.89 1025.82 1025.66 1025.67 1025.64 1025.62 1025.57 1025.73 1025.73 1025.58 1025.60 1025.77 1025.94 1026.01 1026.11 1026.45 1026.85 1027.09 1025.30 1024.66 1024.44 1024.65 1025.14 1025.53 1025.99 1026.38 1026.56 1026.65 1025.58 1023.97 1023.29 1023.31 1023.60 1023.96 1024.29 1024.44 1024.61 1024.54
1023.65 1023.43 1021.82 1021.59 1022.83 1024.66 1025.70 1025.54 1025.60 1025.59 1025.66 1025.88 1025.87 1026.01 1025.95 1025.83 1025.75 1025.75 1025.81 1025.62 1025.97 1026.26 1026.54 1026.94 1027.25 1026.91 1025.78 1025.24 1024.82 1024.75 1025.46 1026.06 1026.67 1026.52 1026.37 1025.77 1024.00 1023.43 1023.60 1024.02 1024.52 1024.83 1024.85 1024.89 1025.13
1024.98 1024.38 1022.32 1022.16 1024.45 1025.73 1025.79 1025.66 1025.55 1025.57 1025.72 1025.82 1026.08 1026.20 1026.06 1026.20 1026.16 1025.89 1025.77 1025.79 1026.00 1026.35 1026.58 1027.04 1027.50 1027.41 1025.98 1025.82 1025.29 1025.42 1025.53 1025.93 1026.36 1026.55 1026.15 1026.19 1024.31 1023.90 1024.09 1024.71 1024.91 1025.28 1025.67 1025.53 1025.59
1025.40 1025.49 1024.59 1024.52 1025.51 1025.55 1025.58 1025.70 1025.68 1025.56 1025.79 1025.76 1025.92 1026.14 1026.31 1026.34 1026.27 1026.30 1026.08 1025.87 1026.25 1026.63 1026.73 1027.15 1027.89 1027.75 1027.19 1026.77 1027.15 1026.91 1026.63 1026.69 1027.17 1027.14 1026.06 1024.81 1024.09 1024.53 1024.93 1025.50 1025.67 1026.06 1025.99 1026.08 1026.12
1025.89 1026.64 1026.58 1026.61 1026.26 1025.95 1025.59 1025.59 1025.56 1025.68 1025.96 1025.91 1026.24 1026.32 1026.43 1026.70 1026.65 1026.72 1026.91 1026.95 1026.86 1027.26 1027.71 1028.24 1028.52 1028.47 1027.67 1027.57 1027.51 1027.12 1026.77 1026.78 1027.03 1026.65 1027.06 1024.80 1025.56 1025.62 1025.93 1026.20 1026.52 1026.87 1026.91 1026.82 1026.79
1026.11 1026.63 1026.90 1026.82 1026.47 1026.21 1025.98 1025.74 1025.52 1025.67 1026.03 1026.24 1026.38 1026.22 1026.55 1026.93 1026.89 1027.20 1027.43 1027.75 1027.93 1028.11 1028.42 1028.92 1029.08 1029.31 1028.62 1027.81 1027.84 1027.14 1026.48 1026.62 1026.80 1026.65 1026.72 1026.68 1026.78 1026.82 1026.88 1026.70 1026.92 1027.47 1027.69 1027.65 1027.42
1026.21 1026.33 1026.30 1026.96 1026.75 1026.62 1026.11 1025.58 1025.44 1025.61 1026.10 1026.31 1026.65 1026.83 1027.07 1027.06 1027.24 1027.55 1027.85 1028.01 1028.38 1028.80 1029.12 1029.57 1029.83 1030.15 1029.30 1028.82 1028.02 1027.03 1026.10 1026.14 1026.44 1026.84 1027.11 1027.32 1027.86 1027.84 1027.88 1027.78 1027.60 1027.50 1028.05 1028.12 1027.80
Thickness
5709 5711 5712 5713 5714 5714 5714 5713 5712 5709 5708 5707 5704 5702 5701 5700 5698 5694 5687 5683 5690 5695 5696 5699 5702 5699 5701 5693 5692 5684 5653 5643 5651 5652 5654 5660 5656 5660 5662 5656 5656 5654 5650 5649 5649
5708 5710 5713 5714 5714 5715 5715 5714 5713 5711 5710 5709 5707 5705 5703 5703 5699 5688 5686 5692 5691 5696 5695 5692 5691 5694 5691 5691 5684 5668 5646 5656 5656 5655 5653 5656 5655 5654 5653 5646 5646 5643 5647 5649 5649
5707 5710 5712 5714 5714 5716 5716 5716 5715 5714 5712 5712 5710 5709 5707 5705 5696 5682 5692 5695 5696 5701 5699 5697 5696 5696 5688 5687 5680 5672 5652 5657 5652 5654 5652 5647 5644 5641 5642 5637 5640 5637 5640 5643 5639
5706 5709 5712 5713 5714 5716 5717 5716 5716 5716 5714 5714 5714 5712 5711 5708 5680 5689 5694 5699 5701 5704 5705 5700 5696 5689 5676 5672 5674 5661 5660 5659 5655 5653 5651 5646 5646 5643 5643 5640 5642 5638 5638 5636 5629
5706 5708 5711 5713 5715 5717 5717 5717 5718 5718 5716 5716 5716 5715 5714 5696 5685 5695 5697 5699 5701 5703 5696 5693 5685 5680 5671 5669 5667 5658 5657 5654 5652 5650 5648 5648 5642 5640 5641 5645 5641 5639 5637 5629 5623
5705 5707 5710 5714 5716 5718 5718 5718 5718 5718 5718 5718 5717 5717 5711 5684 5696 5696 5697 5700 5699 5698 5692 5688 5682 5680 5673 5664 5657 5654 5649 5647 5648 5647 5647 5642 5637 5634 5640 5639 5636 5634 5631 5627 5620
5704 5706 5709 5713 5716 5719 5720 5720 5720 5719 5718 5718 5717 5717 5702 5690 5700 5699 5700 5699 5697 5695 5690 5688 5684 5680 5669 5660 5659 5655 5644 5641 5642 5645 5643 5639 5636 5629 5637 5633 5630 5625 5621 5617 5615
5704 5706 5708 5712 5715 5719 5721 5721 5720 5720 5719 5719 5718 5716 5695 5704 5702 5700 5700 5698 5697 5695 5690 5687 5682 5675 5665 5663 5654 5645 5637 5627 5638 5636 5641 5637 5620 5632 5632 5624 5618 5616 5613 5607 5603
5702 5706 5708 5711 5715 5719 5721 5721 5720 5720 5719 5719 5717 5711 5694 5705 5698 5699 5698 5693 5693 5694 5693 5688 5681 5659 5650 5642 5629 5621 5624 5630 5630 5630 5626 5628 5618 5624 5621 5620 5612 5606 5600 5597 5592
5699 5705 5707 5711 5715 5718 5721 5720 5720 5721 5719 5717 5712 5701 5694 5685 5692 5696 5698 5695 5690 5687 5683 5675 5654 5636 5626 5623 5603 5615 5615 5618 5618 5624 5621 5613 5608 5612 5615 5612 5606 5597 5586 5581 5579
5698 5702 5707 5709 5713 5717 5719 5717 5707 5703 5700 5687 5685 5684 5685 5690 5693 5694 5693 5689 5686 5675 5656 5654 5633 5621 5625 5625 5622 5614 5609 5606 5610 5616 5610 5606 5603 5604 5607 5596 5591 5581 5575 5568 5565
5696 5700 5704 5707 5709 5712 5712 5695 5687 5689 5683 5689 5688 5684 5685 5684 5678 5686 5689 5678 5670 5655 5654 5641 5624 5628 5626 5623 5617 5611 5602 5600 5603 5608 5598 5597 5597 5594 5590 5584 5577 5571 5559 5552 5548
5693 5698 5702 5704 5706 5705 5695 5686 5686 5685 5682 5682 5682 5679 5678 5678 5669 5670 5674 5667 5658 5646 5639 5633 5630 5630 5627 5614 5606 5602 5596 5589 5584 5589 5592 5587 5584 5584 5575 5569 5565 5557 5550 5543 5537
5690 5694 5700 5704 5699 5691 5685 5683 5683 5682 5665 5664 5673 5674 5676 5675 5667 5670 5665 5659 5650 5639 5634 5627 5629 5620 5615 5607 5603 5594 5593 5586 5577 5565 5570 5576 5549 5569 5563 5556 5547 5537 5531 5526 5522
5687 5690 5693 5698 5690 5684 5680 5680 5680 5677 5638 5664 5665 5678 5671 5664 5659 5659 5661 5654 5639 5634 5630 5625 5617 5611 5607 5606 5600 5593 5590 5578 5577 5565 5553 5563 5544 5552 5547 5541 5527 5518 5517 5511 5507
5683 5687 5689 5688 5684 5679 5679 5678 5676 5663 5630 5653 5656 5650 5652 5652 5650 5650 5644 5643 5636 5630 5625 5620 5615 5610 5605 5600 5595 5589 5582 5569 5557 5543 5529 5557 5538 5549 5536 5529 5511 5506 5503 5499 5494
5681 5684 5684 5681 5677 5678 5677 5675 5660 5632 5647 5639 5638 5640 5638 5635 5641 5635 5624 5614 5604 5606 5600 5604 5608 5603 5598 5590 5581 5570 5555 5540 5536 5515 5548 5549 5524 5533 5520 5515 5509 5498 5491 5487 5485
5680 5682 5679 5679 5676 5674 5672 5670 5634 5634 5631 5634 5635 5633 5631 5627 5626 5620 5614 5598 5597 5591 5552 5563 5582 5594 5588 5583 5565 5563 5551 5499 5528 5506 5523 5522 5527 5507 5506 5500 5494 5486 5479 5476 5474
5677 5676 5675 5675 5673 5669 5668 5624 5623 5625 5623 5620 5628 5623 5619 5621 5619 5613 5599 5591 5588 5583 5575 5548 5578 5587 5580 5573 5565 5553 5541 5536 5515 5507 5469 5506 5513 5504 5495 5486 5482 5477 5472 5469 5468
5665 5663 5667 5671 5669 5662 5650 5621 5621 5624 5620 5619 5617 5616 5610 5607 5606 5600 5594 5587 5581 5578 5570 5565 5546 5574 5571 5564 5556 5548 5532 5511 5489 5491 5498 5494 5504 5498 5485 5479 5471 5463 5458 5458 5459
5659 5657 5666 5666 5665 5652 5617 5618 5621 5621 5617 5615 5610 5609 5602 5599 5595 5594 5590 5584 5577 5572 5563 5557 5541 5559 5559 5549 5543 5526 5515 5510 5497 5492 5484 5461 5493 5497 5486 5478 5469 5462 5456 5451 5447
5644 5643 5660 5660 5640 5610 5614 5621 5618 5616 5613 5608 5604 5599 5596 5593 5590 5589 5585 5582 5571 5565 5560 5548 5530 5516 5536 5536 5535 5531 5520 5504 5471 5478 5468 5469 5487 5479 5471 5466 5459 5446 5442 5436 5430
5626 5624 5649 5650 5620 5605 5614 5614 5613 5610 5605 5601 5596 5591 5590 5585 5582 5580 5579 5572 5563 5557 5551 5542 5521 5505 5537 5529 5523 5518 5513 5504 5486 5473 5460 5457 5476 5463 5457 5446 5439 5428 5420 5418 5414
5618 5620 5621 5617 5606 5611 5611 5608 5604 5601 5598 5596 5590 5586 5582 5578 5572 5570 5570 5568 5556 5550 5546 5535 5510 5517 5520 5521 5492 5491 5491 5481 5467 5451 5454 5472 5474 5458 5439 5425 5419 5409 5408 5401 5397
5603 5601 5599 5600 5601 5603 5605 5602 5601 5595 5589 5588 5581 5578 5576 5569 5568 5560 5554 5546 5544 5537 5526 5513 5498 5489 5501 5492 5482 5482 5477 5470 5455 5457 5430 5467 5450 5429 5419 5410 5405 5396 5390 5386 5381
5600 5596 5586 5587 5590 5595 5592 5590 5593 5590 5582 5580 5574 5574 5569 5559 5563 5553 5541 5534 5528 5520 5513 5498 5485 5476 5482 5485 5468 5466 5469 5460 5451 5444 5437 5437 5428 5411 5403 5397 5391 5380 5372 5369 5367
5581 5582 5591 5580 5576 5579 5582 5588 5588 5585 5575 5570 5566 5562 5555 5554 5540 5532 5524 5520 5513 5507 5497 5488 5468 5457 5458 5455 5455 5464 5467 5457 5448 5432 5421 5419 5396 5392 5389 5382 5375 5370 5357 5354 5354